Location: Canet
(43.3261°N, 5.3723°E)
Time: 18:10:29
(UTC+00:00)

Okean-O - Pass Details

Date: 24 January 2021
Orbit: 638 x 641 km, 98.2° (Epoch: 08 March)

Event Time Altitude Azimuth Distance (km) Brightness Sun altitude
Rises 18:02:30 0° 157° (SSE) 2,933 5.9 -15.0°
Reaches altitude 10° 18:04:42 10° 154° (SSE) 2,028 5.1 -15.4°
Maximum altitude 18:09:04 63° 74° (ENE) 718 2.6 -16.2°
Drops below altitude 10° 18:13:28 10° 353° (N) 2,044 5.2 -17.0°
Sets 18:15:42 0° 351° (N) 2,958 6.0 -17.4°
